Weather History for PAGS - November, 2013

Change the Weather History Date:

Monday, November 25, 2013

  Actual Average Record
Temperature  
Mean Temperature 29 °F -  
Max Temperature 39 °F 36 °F 48 °F (1954)
Min Temperature 19 °F 25 °F -1 °F (1955)
Degree Days  
Heating Degree Days 36    
Moisture  
Dew Point 29 °F    
Average Humidity 94    
Maximum Humidity 100    
Minimum Humidity 86    
Precipitation  
Precipitation 0.00 in - - ()
Sea Level Pressure  
Sea Level Pressure 29.96 in    
Wind  
Wind Speed 2 mph (North)    
Max Wind Speed 12 mph    
Max Gust Speed -    
Visibility 9 miles    
Events      
Averages and records for this station are not official NWS values.
T = Trace of Precipitation, MM = Missing Value Source: NWS Daily Summary

Daily Weather History Graph

Daily Weather History Graph

Search for Another Location

Airport or City:

Trip Planner

Search our weather history database for the weather conditions in past years. The results will help you decide how hot, cold, wet, or windy it might be!

Date:

Astronomy

Nov. 25, 2013 Rise Set
Actual Time 8:14 AM AKST 3:24 PM AKST
Civil Twilight 7:25 AM AKST 4:13 PM AKST
Nautical Twilight 6:34 AM AKST 5:04 PM AKST
Astronomical Twilight 5:47 AM AKST 5:52 PM AKST
Moon No Moon Rise 12:38 PM AKST (11/25)
Length of Visible Light 8h 47m
Length of Day
7h 09m
Waning Gibbous, 49% of the Moon is Illuminated
Nov 25
Waning Gibbous
Dec 2
New
Dec 9
First Quarter
Dec 17
Full
Dec 25
Last Quarter

Hourly Weather History & Observations

Time (AKST) Temp. Windchill Dew Point Humidity Pressure Visibility Wind Dir Wind Speed Gust Speed Precip Events Conditions
12:16 AM 19.4 °F - 15.8 °F 86% 30.11 in 10.0 mi Calm Calm - N/A   Partly Cloudy
12:36 AM 19.4 °F 14.3 °F 17.6 °F 93% 30.10 in 10.0 mi NNW 3.5 mph - N/A   Mostly Cloudy
12:56 AM 19.4 °F - 19.4 °F 100% 30.11 in 10.0 mi Calm Calm - N/A   Overcast
1:16 AM 21.2 °F - 19.4 °F 93% 30.10 in 10.0 mi Calm Calm - N/A   Overcast
1:36 AM 21.2 °F - 21.2 °F 100% 30.09 in 10.0 mi Calm Calm - N/A   Overcast
1:56 AM 23.0 °F - 21.2 °F 93% 30.10 in 10.0 mi Calm Calm - N/A   Overcast
2:16 AM 23.0 °F - 21.2 °F 93% 30.09 in 10.0 mi Calm Calm - N/A   Overcast
2:36 AM 23.0 °F - 21.2 °F 93% 30.08 in 10.0 mi Calm Calm - N/A   Overcast
2:56 AM 24.8 °F - 21.2 °F 86% 30.08 in 10.0 mi Calm Calm - N/A   Overcast
3:16 AM 24.8 °F - 23.0 °F 93% 30.07 in 10.0 mi Calm Calm - N/A   Overcast
3:36 AM 24.8 °F - 24.8 °F 100% 30.06 in 10.0 mi Calm Calm - N/A   Overcast
3:56 AM 24.8 °F 20.5 °F 24.8 °F 100% 30.05 in 10.0 mi North 3.5 mph - N/A   Overcast
4:16 AM 26.6 °F 22.6 °F 24.8 °F 93% 30.04 in 10.0 mi NNW 3.5 mph - N/A   Overcast
4:36 AM 26.6 °F - 24.8 °F 93% 30.04 in 10.0 mi Calm Calm - N/A   Overcast
4:56 AM 26.6 °F - 24.8 °F 93% 30.04 in 10.0 mi Calm Calm - N/A   Overcast
5:16 AM 26.6 °F 22.6 °F 24.8 °F 93% 30.04 in 10.0 mi NNW 3.5 mph - N/A   Overcast
5:36 AM 26.6 °F 22.6 °F 24.8 °F 93% 30.04 in 10.0 mi North 3.5 mph - N/A   Overcast
5:56 AM 26.6 °F 22.6 °F 24.8 °F 93% 30.03 in 4.0 mi NNW 3.5 mph - N/A   Overcast
6:16 AM 26.6 °F - 24.8 °F 93% 30.03 in 10.0 mi Calm Calm - N/A   Overcast
6:36 AM 26.6 °F 21.2 °F 26.6 °F 100% 30.02 in 3.0 mi NNW 4.6 mph - N/A   Overcast
6:56 AM 28.4 °F 23.3 °F 26.6 °F 93% 30.00 in 4.0 mi NW 4.6 mph - N/A   Overcast
7:16 AM 28.4 °F 23.3 °F 28.4 °F 100% 30.00 in 4.0 mi NNW 4.6 mph - N/A   Overcast
7:36 AM 30.2 °F 24.3 °F 28.4 °F 93% 30.00 in 3.0 mi North 5.8 mph - N/A   Overcast
8:16 AM 30.2 °F 24.3 °F 28.4 °F 93% 29.97 in 5.0 mi NNW 5.8 mph - N/A   Overcast
8:36 AM 30.2 °F 26.7 °F 28.4 °F 93% 29.97 in 1.2 mi NNW 3.5 mph - N/A   Overcast
8:56 AM 30.2 °F 26.7 °F 28.4 °F 93% 29.97 in 1.8 mi North 3.5 mph - N/A   Overcast
9:16 AM 30.2 °F - 28.4 °F 93% 29.96 in 1.8 mi Calm Calm - N/A   Overcast
9:36 AM 30.2 °F - 28.4 °F 93% 29.95 in 1.8 mi Calm Calm - N/A   Overcast
9:56 AM 30.2 °F - 30.2 °F 100% 29.94 in 2.0 mi Calm Calm - N/A   Overcast
10:16 AM 30.2 °F 25.4 °F 30.2 °F 100% 29.94 in 10.0 mi WSW 4.6 mph - N/A   Overcast
10:36 AM 30.2 °F - 30.2 °F 100% 29.94 in 10.0 mi Calm Calm - N/A   Overcast
10:56 AM 30.2 °F - 30.2 °F 100% 29.93 in 10.0 mi Calm Calm - N/A   Overcast
11:16 AM 30.2 °F - 30.2 °F 100% 29.92 in 4.0 mi Calm Calm - N/A   Overcast
11:36 AM 32.0 °F - 30.2 °F 93% 29.91 in 2.0 mi Calm Calm - N/A   Overcast
11:56 AM 32.0 °F - 30.2 °F 93% 29.89 in 9.0 mi Calm Calm - N/A   Overcast
12:16 PM 32.0 °F - 30.2 °F 93% 29.88 in 9.0 mi Calm Calm - N/A   Overcast
12:36 PM 33.8 °F - 32.0 °F 93% 29.89 in 10.0 mi Calm Calm - N/A   Overcast
12:56 PM 33.8 °F - 32.0 °F 93% 29.88 in 10.0 mi Calm Calm - N/A   Overcast
1:16 PM 33.8 °F - 32.0 °F 93% 29.87 in 10.0 mi Calm Calm - N/A   Overcast
1:36 PM 33.8 °F - 32.0 °F 93% 29.87 in 10.0 mi Calm Calm - N/A   Overcast
1:56 PM 33.8 °F - 32.0 °F 93% 29.87 in 10.0 mi Calm Calm - N/A   Overcast
2:16 PM 33.8 °F - 32.0 °F 93% 29.87 in 10.0 mi Calm Calm - N/A   Overcast
2:36 PM 33.8 °F - 32.0 °F 93% 29.87 in 10.0 mi Calm Calm - N/A   Overcast
2:56 PM 33.8 °F - 32.0 °F 93% 29.86 in 7.0 mi Calm Calm - N/A   Overcast
3:16 PM 33.8 °F - 32.0 °F 93% 29.86 in 10.0 mi Calm Calm - N/A   Overcast
3:36 PM 33.8 °F 28.6 °F 32.0 °F 93% 29.86 in 8.0 mi NNW 5.8 mph - N/A   Overcast
3:56 PM 33.8 °F 29.6 °F 32.0 °F 93% 29.86 in 10.0 mi NNW 4.6 mph - N/A   Overcast
4:16 PM 33.8 °F 27.7 °F 33.8 °F 100% 29.86 in 10.0 mi NW 6.9 mph - N/A   Overcast
4:36 PM 33.8 °F 30.8 °F 33.8 °F 100% 29.87 in 10.0 mi NNW 3.5 mph - N/A   Overcast
4:56 PM 33.8 °F - 33.8 °F 100% 29.86 in 10.0 mi Calm Calm - N/A   Overcast
5:16 PM 33.8 °F - 33.8 °F 100% 29.86 in 10.0 mi Calm Calm - N/A   Overcast
5:36 PM 33.8 °F - 32.0 °F 93% 29.86 in 10.0 mi Calm Calm - N/A   Overcast
5:56 PM 33.8 °F - 32.0 °F 93% 29.87 in 10.0 mi Calm Calm - N/A   Overcast
6:16 PM 33.8 °F - 33.8 °F 100% 29.88 in 10.0 mi Calm Calm - N/A   Overcast
6:36 PM 33.8 °F - 32.0 °F 93% 29.88 in 10.0 mi Calm Calm - N/A   Overcast
6:56 PM 33.8 °F - 32.0 °F 93% 29.88 in 10.0 mi Calm Calm - N/A   Overcast
7:16 PM 33.8 °F - 32.0 °F 93% 29.88 in 10.0 mi Calm Calm - N/A   Overcast
7:36 PM 33.8 °F - 32.0 °F 93% 29.88 in 10.0 mi Calm Calm - N/A   Overcast
7:56 PM 33.8 °F - 32.0 °F 93% 29.89 in 10.0 mi Calm Calm - N/A   Overcast
8:16 PM 33.8 °F - 32.0 °F 93% 29.90 in 10.0 mi Calm Calm - N/A   Overcast
8:36 PM 37.4 °F - 35.6 °F 93% 29.91 in 10.0 mi Calm Calm - N/A   Overcast
8:56 PM 35.6 °F - 33.8 °F 93% 29.92 in 10.0 mi Calm Calm - N/A   Overcast
9:16 PM 37.4 °F 33.8 °F 35.6 °F 93% 29.93 in 10.0 mi SSE 4.6 mph - N/A   Overcast
9:36 PM 39.2 °F 34.2 °F 35.6 °F 87% 29.93 in 10.0 mi SE 6.9 mph - N/A   Overcast
9:56 PM 39.2 °F 37.0 °F 35.6 °F 87% 29.94 in 10.0 mi SE 3.5 mph - N/A   Overcast
10:16 PM 39.2 °F 34.2 °F 35.6 °F 87% 29.95 in 10.0 mi SSE 6.9 mph - N/A   Overcast
10:36 PM 37.4 °F 32.1 °F 37.4 °F 100% 29.95 in 10.0 mi ESE 6.9 mph - N/A   Overcast
10:56 PM 37.4 °F 34.9 °F 35.6 °F 93% 29.96 in 10.0 mi SE 3.5 mph - N/A   Overcast
11:16 PM 37.4 °F 32.8 °F 35.6 °F 93% 29.97 in 10.0 mi ESE 5.8 mph - N/A   Overcast
11:36 PM 39.2 °F 32.0 °F 35.6 °F 87% 29.97 in 10.0 mi ESE 11.5 mph - N/A   Overcast
11:56 PM 39.2 °F 32.0 °F 37.4 °F 93% 29.97 in 10.0 mi SE 11.5 mph - N/A   Overcast